Belen, NM

10:20 AM MDT on October 23, 2017 (GMT -0600)
Belen

Weather History for KE80 - May, 2013

Change the Weather History Date:

Wednesday, May 1, 2013

  Actual Average (KABQ) Record (KABQ)
Temperature  
Mean Temperature 69 °F -  
Max Temperature 86 °F 73 °F 88 °F (1992)
Min Temperature 52 °F 44 °F 28 °F (1967)
Cooling Degree Days 4    
Growing Degree Days 19 (Base 50)    
Moisture  
Dew Point 11 °F    
Average Humidity 11    
Maximum Humidity 32    
Minimum Humidity 4    
Precipitation  
Precipitation 0.00 in - - ()
Sea Level Pressure  
Sea Level Pressure 30.00 in    
Wind  
Wind Speed 11 mph (West)    
Max Wind Speed 28 mph    
Max Gust Speed 37 mph    
Visibility 10 miles    
Events      
Averages and records for this station are not official NWS values.
T = Trace of Precipitation, MM = Missing Value Source: NWS Daily Summary

Daily Weather History Graph

Daily Weather History Graph

Search for Another Location

Airport or City:

Trip Planner

Search our weather history database for the weather conditions in past years. The results will help you decide how hot, cold, wet, or windy it might be!

Date:

Astronomy

May. 01, 2013 Rise Set
Actual Time 6:16 AM MDT 7:52 PM MDT
Civil Twilight 5:49 AM MDT 8:19 PM MDT
Nautical Twilight 5:17 AM MDT 8:51 PM MDT
Astronomical Twilight 4:43 AM MDT 9:26 PM MDT
Moon 1:03 AM MDT (5/1) 11:58 AM MDT (5/1)
Length of Visible Light 14h 29m
Length of Day
13h 35m
Waning Gibbous, 58% of the Moon is Illuminated
May 1
Waning Gibbous
May 2
Last Quarter
May 9
New
May 17
First Quarter
May 24
Full

Hourly Weather History & Observations

Time (MDT) Temp. Dew Point Humidity Pressure Visibility Wind Dir Wind Speed Gust Speed Precip Events Conditions
12:35 AM 66.2 °F 8.6 °F 11% 29.89 in 10.0 mi West 6.9 mph - N/A   Clear
12:55 AM 65.5 °F 9.0 °F 11% 29.90 in 10.0 mi West 8.1 mph - N/A   Clear
1:15 AM 64.0 °F 8.8 °F 11% 29.90 in 10.0 mi West 9.2 mph - N/A   Clear
1:35 AM 61.3 °F 8.4 °F 12% 29.91 in 10.0 mi West 5.8 mph - N/A   Clear
1:55 AM 61.9 °F 9.0 °F 12% 29.91 in 10.0 mi Calm Calm - N/A   Clear
2:15 AM 61.2 °F 9.1 °F 13% 29.91 in 10.0 mi ESE 3.5 mph - N/A   Clear
2:35 AM 61.7 °F 9.3 °F 13% 29.93 in 10.0 mi SE 5.8 mph - N/A   Clear
2:55 AM 60.6 °F 9.7 °F 13% 29.93 in 10.0 mi SW 4.6 mph - N/A   Clear
3:15 AM 59.2 °F 8.4 °F 13% 29.93 in 10.0 mi South 5.8 mph - N/A   Clear
3:35 AM 56.5 °F 8.1 °F 14% 29.94 in 10.0 mi South 3.5 mph - N/A   Clear
3:55 AM 59.2 °F 9.3 °F 14% 29.94 in 10.0 mi WSW 5.8 mph - N/A   Clear
4:15 AM 60.1 °F 10.4 °F 14% 29.95 in 10.0 mi WSW 10.4 mph - N/A   Clear
4:35 AM 61.9 °F 11.1 °F 14% 29.95 in 10.0 mi WSW 9.2 mph - N/A   Clear
4:55 AM 59.9 °F 10.4 °F 14% 29.96 in 10.0 mi SSW 5.8 mph - N/A   Clear
5:15 AM 56.1 °F 9.5 °F 16% 29.97 in 10.0 mi South 4.6 mph - N/A   Clear
5:35 AM 52.2 °F 8.2 °F 17% 29.97 in 10.0 mi Calm Calm - N/A   Clear
5:55 AM 56.5 °F 10.2 °F 16% 29.98 in 10.0 mi SW 8.1 mph - N/A   Clear
6:15 AM 61.0 °F 10.8 °F 14% 29.99 in 10.0 mi WSW 8.1 mph - N/A   Clear
6:35 AM 56.8 °F 9.3 °F 15% 30.00 in 10.0 mi WSW 8.1 mph - N/A   Clear
6:55 AM 58.6 °F 9.0 °F 14% 30.00 in 10.0 mi WSW 5.8 mph - N/A   Clear
7:15 AM 61.3 °F 9.9 °F 13% 30.00 in 10.0 mi West 8.1 mph - N/A   Clear
7:35 AM 64.9 °F 10.0 °F 12% 30.00 in 10.0 mi West 13.8 mph 18.4 mph N/A   Clear
7:55 AM 67.3 °F 10.4 °F 11% 30.00 in 10.0 mi West 19.6 mph 24.2 mph N/A   Clear
8:15 AM 69.3 °F 11.1 °F 11% 30.01 in 10.0 mi West 15.0 mph 19.6 mph N/A   Clear
8:35 AM 70.7 °F 12.4 °F 11% 30.01 in 10.0 mi West 13.8 mph - N/A   Clear
8:55 AM 72.3 °F 14.0 °F 11% 30.01 in 10.0 mi West 15.0 mph - N/A   Clear
9:15 AM 73.4 °F 14.4 °F 11% 30.01 in 10.0 mi WNW 13.8 mph - N/A   Clear
9:35 AM 74.3 °F 14.5 °F 10% 30.01 in 10.0 mi West 16.1 mph 21.9 mph N/A   Clear
9:55 AM 75.9 °F 14.7 °F 10% 30.01 in 10.0 mi West 15.0 mph - N/A   Clear
10:15 AM 76.6 °F 14.9 °F 10% 30.01 in 10.0 mi WNW 9.2 mph 21.9 mph N/A   Clear
10:35 AM 77.7 °F 15.8 °F 10% 30.01 in 10.0 mi West 18.4 mph 24.2 mph N/A   Clear
10:55 AM 78.6 °F 15.6 °F 9% 30.02 in 10.0 mi WNW 19.6 mph 26.5 mph N/A   Clear
11:15 AM 78.4 °F 16.0 °F 10% 30.02 in 10.0 mi WNW 19.6 mph 26.5 mph N/A   Clear
11:35 AM 78.8 °F 16.7 °F 10% 30.01 in 10.0 mi WNW 17.3 mph 28.8 mph N/A   Clear
11:55 AM 78.8 °F 14.9 °F 9% 30.02 in 10.0 mi West 15.0 mph 24.2 mph N/A   Clear
12:15 PM 79.9 °F 14.5 °F 9% 30.01 in 10.0 mi West 12.7 mph 21.9 mph N/A   Clear
12:35 PM 80.4 °F 14.7 °F 8% 30.01 in 10.0 mi West 12.7 mph 23.0 mph N/A   Clear
12:55 PM 80.8 °F 13.6 °F 8% 30.00 in 10.0 mi West 11.5 mph 21.9 mph N/A   Clear
1:15 PM 80.2 °F 14.0 °F 8% 30.00 in 10.0 mi NW 9.2 mph 18.4 mph N/A   Clear
1:35 PM 82.8 °F 12.6 °F 7% 30.00 in 10.0 mi WSW 12.7 mph 24.2 mph N/A   Clear
1:55 PM 82.8 °F 11.8 °F 7% 29.99 in 10.0 mi West 9.2 mph 24.2 mph N/A   Clear
2:15 PM 83.5 °F 10.6 °F 6% 29.98 in 10.0 mi West 16.1 mph 23.0 mph N/A   Clear
2:35 PM 84.2 °F 9.5 °F 6% 29.98 in 10.0 mi WSW 17.3 mph 24.2 mph N/A   Clear
2:55 PM 84.4 °F 8.4 °F 6% 29.97 in 10.0 mi West 17.3 mph 23.0 mph N/A   Clear
3:15 PM 85.3 °F 7.5 °F 5% 29.97 in 10.0 mi SW 15.0 mph 28.8 mph N/A   Clear
3:35 PM 85.3 °F 4.6 °F 5% 29.96 in 10.0 mi WSW 21.9 mph 29.9 mph N/A   Clear
3:55 PM 84.9 °F 3.2 °F 4% 29.95 in 10.0 mi WSW 13.8 mph 27.6 mph N/A   Clear
4:15 PM 86.2 °F 0.7 °F 4% 29.95 in 10.0 mi West 24.2 mph 29.9 mph N/A   Clear
4:35 PM 85.6 °F 2.1 °F 4% 29.94 in 10.0 mi West 21.9 mph 29.9 mph N/A   Clear
4:55 PM 85.3 °F 3.4 °F 4% 29.94 in 10.0 mi West 21.9 mph 35.7 mph N/A   Clear
5:15 PM 85.3 °F 1.4 °F 4% 29.94 in 10.0 mi West 21.9 mph 32.2 mph N/A   Clear
5:55 PM 83.8 °F 1.8 °F 4% 29.95 in 10.0 mi West 24.2 mph 32.2 mph N/A   Clear
6:15 PM 83.3 °F 1.8 °F 4% 29.95 in 10.0 mi West 23.0 mph 36.8 mph N/A   Clear
6:35 PM 82.4 °F 2.3 °F 5% 29.95 in 10.0 mi WNW 26.5 mph 31.1 mph N/A   Clear
6:55 PM 81.1 °F 3.9 °F 5% 29.95 in 10.0 mi West 24.2 mph 32.2 mph N/A   Clear
7:15 PM 80.1 °F 6.4 °F 6% 29.95 in 10.0 mi West 27.6 mph 31.1 mph N/A   Clear
7:35 PM 78.3 °F 8.4 °F 7% 29.97 in 10.0 mi WNW 19.6 mph 25.3 mph N/A   Clear
7:55 PM 77.0 °F 10.4 °F 8% 29.98 in 10.0 mi WNW 19.6 mph 24.2 mph N/A   Clear
8:15 PM 74.7 °F 13.1 °F 10% 29.99 in 10.0 mi WNW 16.1 mph 19.6 mph N/A   Clear
8:35 PM 74.1 °F 15.4 °F 11% 30.01 in 10.0 mi WNW 13.8 mph - N/A   Clear
8:55 PM 72.5 °F 15.4 °F 11% 30.03 in 10.0 mi NW 9.2 mph - N/A   Clear
9:35 PM 68.2 °F 1.0 °F 7% 30.10 in 7.0 mi North 20.7 mph 34.5 mph N/A   Clear
9:55 PM 67.3 °F 7.2 °F 10% 30.12 in 10.0 mi NNE 18.4 mph 29.9 mph N/A   Clear
10:15 PM 63.9 °F 27.0 °F 25% 30.15 in 10.0 mi NNE 19.6 mph 28.8 mph N/A   Scattered Clouds
10:35 PM 63.0 °F 22.8 °F 22% 30.17 in 10.0 mi North 16.1 mph 23.0 mph N/A   Clear
10:55 PM 59.9 °F 26.6 °F 28% 30.18 in 10.0 mi North 9.2 mph - N/A   Clear
11:15 PM 58.1 °F 26.4 °F 30% 30.20 in 10.0 mi North 8.1 mph - N/A   Clear
11:35 PM 57.0 °F 27.1 °F 32% 30.21 in 10.0 mi North 13.8 mph - N/A   Clear
11:55 PM 55.6 °F 26.2 °F 32% 30.23 in 10.0 mi NNE 10.4 mph - N/A   Clear